F0657D65 Weather Reports


time (UTC)temp
C
wind
direction
speed
KPH
gust
KPH
rain 1hr
cm
rain 24hr
cm
rain mn
cm
humidity
%
barometer
mb
20260507210044 8 62 0.0 0.0 0.00 0.00 0.00 89 1017.1
20260507204550 8 62 0.0 0.0 0.00 0.00 0.00 89 1016.9
20260507203045 8 62 0.0 0.0 0.00 0.00 0.00 89 1016.9
20260507201552 8 62 0.0 0.0 0.00 0.00 0.00 88 1016.8
20260507200042 9 62 0.0 0.0 0.00 0.00 0.00 88 1016.6
20260507194543 9 62 0.0 0.0 0.00 0.00 0.00 87 1016.5
20260507193044 10 62 0.0 0.0 0.00 0.00 0.00 86 1016.3
20260507191550 10 62 0.0 0.0 0.00 0.00 0.00 84 1016.3
20260507190040 11 62 0.0 0.0 0.00 0.00 0.00 83 1016.2
20260507184540 11 62 0.0 0.0 0.00 0.00 0.00 81 1016.1
20260507183042 12 62 0.0 0.0 0.00 0.00 0.00 80 1016.0
20260507181539 12 63 0.0 1.6 0.00 0.00 0.00 78 1015.9
20260507180039 12 61 0.0 3.2 0.00 0.00 0.00 76 1015.7
20260507174545 13 63 0.0 3.2 0.00 0.00 0.00 73 1015.7
20260507173038 13 111 0.0 4.8 0.00 0.00 0.00 72 1015.8
20260507171538 14 74 1.6 6.4 0.00 0.00 0.00 73 1016.0
20260507170044 15 72 0.0 6.4 0.00 0.00 0.00 71 1015.8
20260507164537 15 71 0.0 6.4 0.00 0.00 0.00 73 1015.9
20260507163036 15 80 0.0 4.8 0.00 0.00 0.00 67 1016.0
20260507161536 15 101 1.6 4.8 0.00 0.00 0.00 68 1015.9
20260507160036 15 73 1.6 4.8 0.00 0.00 0.00 69 1016.0
20260507154535 15 74 1.6 9.7 0.00 0.00 0.00 69 1016.0
20260507153037 15 19 1.6 4.8 0.00 0.00 0.00 68 1016.1
20260507151534 15 57 1.6 6.4 0.00 0.00 0.00 69 1016.0
20260507150039 15 79 3.2 9.7 0.00 0.03 0.00 66 1016.1
20260507144534 15 67 1.6 6.4 0.00 0.03 0.00 60 1016.1
20260507143035 15 133 0.0 6.4 0.00 0.03 0.00 67 1016.1
20260507141531 15 337 0.0 3.2 0.00 0.03 0.00 71 1016.4
20260507140030 14 27 0.0 0.0 0.00 0.03 0.00 69 1016.5
20260507134531 14 202 0.0 0.0 0.00 0.03 0.00 71 1016.7
20260507133029 14 78 0.0 0.0 0.00 0.03 0.00 72 1016.6
20260507131535 14 248 0.0 4.8 0.00 0.03 0.00 74 1016.6
20260507130028 14 29 0.0 3.2 0.00 0.03 0.00 76 1016.5
20260507124527 14 360 0.0 4.8 0.00 0.03 0.00 73 1016.5
20260507123027 15 55 0.0 4.8 0.00 0.03 0.00 71 1016.5
20260507121526 14 59 0.0 6.4 0.00 0.03 0.00 66 1016.6
20260507120037 13 61 0.0 3.2 0.00 0.03 0.00 67 1016.6
20260507114525 13 9 0.0 3.2 0.00 0.03 0.00 63 1016.7
20260507113024 14 9 1.6 3.2 0.00 0.03 0.00 64 1016.7
20260507111525 14 311 1.6 3.2 0.00 0.03 0.00 64 1016.8
20260507110024 15 76 1.6 4.8 0.00 0.03 0.00 64 1016.7
20260507104521 14 303 1.6 3.2 0.00 0.03 0.00 69 1016.9
20260507103020 14 19 1.6 6.4 0.00 0.03 0.00 74 1017.0
20260507101519 14 57 1.6 6.4 0.00 0.03 0.00 69 1017.0
20260507100022 14 360 0.0 4.8 0.00 0.03 0.00 73 1016.9
20260507094516 13 78 0.0 6.4 0.00 0.03 0.00 73 1017.0
20260507093012 13 298 0.0 3.2 0.00 0.03 0.00 76 1016.8
20260507091514 13 313 0.0 4.8 0.00 0.03 0.00 77 1016.9
20260507090010 13 90 0.0 6.4 0.00 0.03 0.00 78 1016.8
20260507084510 12 96 1.6 4.8 0.00 0.03 0.00 78 1016.7
20260507083100 12 103 1.6 4.8 0.00 0.03 0.00 78 1016.7
20260507081603 11 329 0.0 3.2 0.00 0.03 0.00 80 1016.7
20260507080053 11 324 0.0 1.6 0.00 0.03 0.00 82 1016.7
20260507074601 11 324 0.0 1.6 0.00 0.03 0.00 86 1016.6
20260507073045 11 324 0.0 0.0 0.00 0.03 0.00 88 1016.4
20260507071541 10 325 0.0 0.0 0.00 0.03 0.00 90 1016.4
20260507070037 10 324 0.0 0.0 0.00 0.03 0.00 92 1016.3
20260507064533 9 324 0.0 0.0 0.00 0.03 0.00 92 1016.2
20260507063030 8 324 0.0 1.6 0.00 0.03 0.00 93 1016.2
20260507061528 8 355 0.0 3.2 0.00 0.03 0.00 93 1016.1
20260507060027 8 274 0.0 3.2 0.00 0.03 0.00 94 1016.0
20260507054521 8 280 0.0 3.2 0.00 0.03 0.00 94 1016.0
20260507053020 8 355 0.0 4.8 0.00 0.03 0.00 95 1015.9
20260507051518 7 24 0.0 4.8 0.00 0.03 0.00 95 1015.8
20260507050025 7 314 0.0 1.6 0.00 0.03 0.00 95 1015.7
20260507044513 7 314 0.0 1.6 0.00 0.03 0.00 95 1015.5
20260507043010 7 314 0.0 1.6 0.00 0.03 0.00 95 1015.4
20260507041510 7 314 0.0 4.8 0.00 0.03 0.00 95 1015.3
20260507040009 7 325 0.0 3.2 0.00 0.03 0.00 95 1015.4
20260507034508 7 325 0.0 1.6 0.00 0.03 0.00 95 1015.3
20260507033017 7 325 0.0 3.2 0.00 0.03 0.00 94 1015.4
20260507031506 7 325 0.0 1.6 0.00 0.03 0.00 94 1015.4
20260507030006 7 325 0.0 1.6 0.00 0.05 0.00 94 1015.3
20260507024503 7 325 0.0 1.6 0.00 0.05 0.00 93 1015.3
20260507023002 7 325 0.0 1.6 0.00 0.05 0.00 93 1015.3
20260507021503 7 325 0.0 1.6 0.00 0.05 0.00 93 1015.2
20260507014605 7 355 0.0 3.2 0.00 0.05 0.00 93 1015.1
20260507013058 7 355 0.0 3.2 0.00 0.05 0.00 93 1015.1
20260507011557 7 232 0.0 1.6 0.00 0.05 0.00 94 1014.8
20260507004554 8 334 0.0 4.8 0.00 0.05 0.00 93 1014.7
20260507003053 8 212 0.0 6.4 0.00 0.05 0.00 93 1014.7
20260507001559 8 313 0.0 1.6 0.00 0.05 0.00 93 1014.8
20260507000050 8 126 0.0 3.2 0.00 0.05 0.00 92 1014.8
20260506234549 8 15 0.0 4.8 0.00 0.05 0.00 92 1014.9
20260506233102 8 265 0.0 4.8 0.00 0.05 0.00 91 1014.8
20260506231548 8 34 1.6 9.7 0.00 0.05 0.00 91 1014.8
20260506230045 8 302 0.0 8.0 0.00 0.10 0.00 90 1014.8
20260506224541 9 225 0.0 4.8 0.00 0.10 0.00 90 1014.7
20260506223036 9 346 0.0 8.0 0.00 0.10 0.00 90 1014.7
20260506221532 9 248 0.0 4.8 0.00 0.10 0.00 90 1014.5
20260506220027 9 320 1.6 8.0 0.00 0.15 0.10 90 1014.4
20260506214527 9 5 1.6 8.0 0.00 0.15 0.10 90 1014.5
20260506213025 9 32 1.6 9.7 0.00 0.15 0.10 90 1014.4
20260506211523 9 101 1.6 6.4 0.00 0.15 0.10 90 1014.2